Madisonville, KY

1:36 AM CDT on March 28, 2017 (GMT -0500)
Madisonville

Weather History for K2I0 - December, 2012

Change the Weather History Date:

Tuesday, December 25, 2012

  Actual Average (KOWB) Record (KOWB)
Temperature  
Mean Temperature 36 °F -  
Max Temperature 38 °F 40 °F 67 °F (1942)
Min Temperature 33 °F 25 °F -6 °F (1983)
Degree Days  
Heating Degree Days 30    
Moisture  
Dew Point 32 °F    
Average Humidity 85    
Maximum Humidity 99    
Minimum Humidity 75    
Precipitation  
Precipitation 0.06 in - - ()
Sea Level Pressure  
Sea Level Pressure 30.03 in    
Wind  
Wind Speed 11 mph (NE)    
Max Wind Speed 24 mph    
Max Gust Speed 31 mph    
Visibility 8 miles    
Events Rain    
Averages and records for this station are not official NWS values.
T = Trace of Precipitation, MM = Missing Value Source: NWS Daily Summary

Daily Weather History Graph

Daily Weather History Graph

Search for Another Location

Airport or City:

Trip Planner

Search our weather history database for the weather conditions in past years. The results will help you decide how hot, cold, wet, or windy it might be!

Date:

Astronomy

Dec. 25, 2012 Rise Set
Actual Time 7:02 AM CST 4:37 PM CST
Civil Twilight 6:32 AM CST 5:07 PM CST
Nautical Twilight 6:00 AM CST 5:39 PM CST
Astronomical Twilight 5:28 AM CST 6:11 PM CST
Moon 2:45 PM CST (12/25) 4:35 AM CST (12/25)
Length of Visible Light 10h 34m
Length of Day
9h 35m
Waxing Gibbous, 94% of the Moon is Illuminated
Dec 25
Waxing Gibbous
Dec 28
Full
Jan 4
Last Quarter
Jan 11
New
Jan 18
First Quarter

Hourly Weather History & Observations

Time (CST) Temp. Windchill Dew Point Humidity Pressure Visibility Wind Dir Wind Speed Gust Speed Precip Events Conditions
12:15 AM 35.2 °F 27.6 °F 31.1 °F 85% 30.08 in 10.0 mi NNE 10.4 mph - N/A   Overcast
12:35 AM 35.1 °F 27.4 °F 30.9 °F 85% 30.08 in 10.0 mi NNE 10.4 mph - N/A   Overcast
12:55 AM 35.1 °F 27.9 °F 30.2 °F 82% 30.08 in 10.0 mi NNE 9.2 mph - N/A   Overcast
1:15 AM 34.9 °F 27.7 °F 30.0 °F 82% 30.07 in 10.0 mi NNE 9.2 mph - N/A   Overcast
1:35 AM 35.1 °F 27.4 °F 30.0 °F 82% 30.08 in 10.0 mi NNE 10.4 mph - N/A   Overcast
1:55 AM 35.1 °F 31.0 °F 30.6 °F 84% 30.09 in 10.0 mi NNE 4.6 mph - N/A   Overcast
2:15 AM 35.1 °F 28.6 °F 30.7 °F 84% 30.09 in 10.0 mi NNE 8.1 mph - N/A   Overcast
2:35 AM 34.9 °F 29.0 °F 30.7 °F 85% 30.09 in 10.0 mi NNE 6.9 mph - N/A   Overcast
2:55 AM 34.9 °F 29.9 °F 30.9 °F 85% 30.10 in 10.0 mi NNE 5.8 mph - N/A   Overcast
3:15 AM 34.7 °F 28.1 °F 31.1 °F 87% 30.10 in 7.0 mi NNE 8.1 mph - N/A   Overcast
3:35 AM 34.7 °F 28.1 °F 30.7 °F 85% 30.09 in 7.0 mi NNE 8.1 mph - N/A   Overcast
3:55 AM 34.3 °F 28.4 °F 30.6 °F 86% 30.09 in 7.0 mi NNE 6.9 mph - N/A   Overcast
4:15 AM 34.3 °F 29.2 °F 30.9 °F 87% 30.10 in 7.0 mi NNE 5.8 mph - N/A   Overcast
4:35 AM 34.3 °F 28.4 °F 31.1 °F 88% 30.10 in 7.0 mi NNE 6.9 mph - N/A   Overcast
4:55 AM 34.3 °F 26.5 °F 31.1 °F 88% 30.11 in 7.0 mi North 10.4 mph - N/A   Overcast
5:15 AM 34.0 °F 26.0 °F 31.8 °F 92% 30.11 in 5.0 mi NNE 10.4 mph - N/A   Overcast
5:35 AM 34.0 °F 26.0 °F 32.0 °F 92% 30.11 in 5.0 mi NNE 10.4 mph - N/A   Overcast
5:55 AM 33.8 °F 25.8 °F 31.6 °F 92% 30.10 in 5.0 mi NE 10.4 mph - N/A   Overcast
6:15 AM 33.8 °F 27.0 °F 31.8 °F 92% 30.10 in 5.0 mi NE 8.1 mph - N/A   Overcast
6:35 AM 33.8 °F 25.8 °F 31.8 °F 92% 30.09 in 5.0 mi NE 10.4 mph - N/A   Overcast
6:55 AM 33.8 °F 27.0 °F 31.5 °F 91% 30.12 in 5.0 mi NE 8.1 mph - N/A   Overcast
7:15 AM 33.4 °F 24.8 °F 31.5 °F 92% 30.09 in 4.0 mi NNE 11.5 mph - N/A   Overcast
7:35 AM 33.3 °F 25.1 °F 31.6 °F 94% 30.11 in 4.0 mi NE 10.4 mph - N/A   Overcast
7:55 AM 33.4 °F 26.6 °F 31.8 °F 94% 30.13 in 4.0 mi NE 8.1 mph - N/A   Overcast
8:15 AM 34.0 °F 27.2 °F 32.0 °F 92% 30.14 in 4.0 mi ENE 8.1 mph - N/A   Overcast
8:35 AM 34.2 °F 25.7 °F 31.8 °F 91% 30.14 in 4.0 mi NE 11.5 mph - N/A   Overcast
8:55 AM 34.5 °F 25.3 °F 31.8 °F 90% 30.15 in 4.0 mi NE 13.8 mph - N/A   Overcast
9:15 AM 34.9 °F 26.6 °F 32.0 °F 89% 30.15 in 4.0 mi NE 11.5 mph - N/A   Overcast
9:35 AM 35.6 °F 27.5 °F 32.0 °F 87% 30.15 in 5.0 mi NE 11.5 mph - N/A   Overcast
9:55 AM 35.8 °F 27.3 °F 32.0 °F 86% 30.15 in 5.0 mi NE 12.7 mph 16.1 mph N/A   Overcast
10:15 AM 36.0 °F 27.5 °F 32.2 °F 86% 30.14 in 5.0 mi NE 12.7 mph - N/A   Overcast
10:35 AM 36.3 °F 28.0 °F 32.0 °F 84% 30.14 in 5.0 mi ENE 12.7 mph - N/A   Overcast
10:55 AM 36.7 °F 28.4 °F 32.2 °F 84% 30.14 in 5.0 mi NE 12.7 mph - N/A   Haze
11:15 AM 36.9 °F 29.6 °F 32.4 °F 84% 30.14 in 5.0 mi NE 10.4 mph - N/A   Overcast
11:35 AM 37.4 °F 29.3 °F 32.2 °F 81% 30.11 in 7.0 mi ENE 12.7 mph - N/A   Overcast
11:55 AM 37.4 °F 28.9 °F 32.2 °F 81% 30.11 in 7.0 mi ENE 13.8 mph 19.6 mph N/A   Overcast
12:15 PM 37.8 °F 29.4 °F 32.0 °F 80% 30.11 in 7.0 mi ENE 13.8 mph 18.4 mph N/A   Overcast
12:35 PM 37.8 °F 29.0 °F 32.0 °F 80% 30.11 in 7.0 mi ENE 15.0 mph - N/A   Overcast
12:55 PM 38.1 °F 31.2 °F 32.0 °F 79% 30.10 in 10.0 mi NE 10.4 mph - N/A   Overcast
1:15 PM 38.3 °F 30.1 °F 32.2 °F 79% 30.06 in 10.0 mi NE 13.8 mph - N/A   Overcast
1:35 PM 38.5 °F 29.9 °F 32.0 °F 78% 30.04 in 10.0 mi ENE 15.0 mph 21.9 mph N/A   Overcast
2:15 PM 38.3 °F 28.1 °F 31.5 °F 76% 30.01 in 10.0 mi ENE 20.7 mph - N/A   Mostly Cloudy
2:35 PM 38.7 °F 28.8 °F 31.8 °F 76% 30.00 in 10.0 mi ENE 19.6 mph - N/A   Mostly Cloudy
2:55 PM 38.7 °F 30.1 °F 31.8 °F 76% 30.01 in 10.0 mi ENE 15.0 mph - N/A   Overcast
3:15 PM 38.5 °F 30.3 °F 31.3 °F 75% 30.00 in 10.0 mi ENE 13.8 mph - N/A   Overcast
3:35 PM 38.5 °F 30.3 °F 31.3 °F 75% 30.00 in 10.0 mi ENE 13.8 mph - N/A   Overcast
3:55 PM 38.3 °F 29.7 °F 31.5 °F 76% 29.99 in 10.0 mi ENE 15.0 mph - N/A   Overcast
4:15 PM 38.3 °F 29.7 °F 31.8 °F 77% 29.99 in 10.0 mi ENE 15.0 mph - N/A   Overcast
4:35 PM 38.3 °F 30.5 °F 32.0 °F 78% 30.00 in 10.0 mi ENE 12.7 mph - N/A   Overcast
4:55 PM 38.3 °F 30.9 °F 31.8 °F 77% 30.01 in 10.0 mi NE 11.5 mph - N/A   Overcast
5:15 PM 38.3 °F 30.5 °F 31.8 °F 77% 30.01 in 10.0 mi NE 12.7 mph - N/A   Overcast
5:35 PM 38.3 °F 30.5 °F 32.0 °F 78% 29.99 in 10.0 mi NE 12.7 mph - N/A   Overcast
5:55 PM 38.3 °F 29.3 °F 32.0 °F 78% 29.99 in 10.0 mi NE 16.1 mph - N/A   Overcast
6:15 PM 38.3 °F 30.1 °F 32.0 °F 78% 29.99 in 10.0 mi ENE 13.8 mph 19.6 mph N/A   Overcast
6:35 PM 38.3 °F 30.5 °F 32.0 °F 78% 29.98 in 10.0 mi ENE 12.7 mph - N/A   Overcast
6:55 PM 38.3 °F 28.7 °F 32.0 °F 78% 29.96 in 10.0 mi ENE 18.4 mph - N/A   Overcast
7:15 PM 38.3 °F 28.7 °F 32.0 °F 78% 29.94 in 10.0 mi ENE 18.4 mph - N/A   Overcast
7:35 PM 38.3 °F 28.7 °F 32.0 °F 78% 29.93 in 10.0 mi ENE 18.4 mph 23.0 mph N/A   Overcast
7:55 PM 37.8 °F 29.0 °F 32.0 °F 80% 29.93 in 10.0 mi ENE 15.0 mph 24.2 mph N/A   Light Drizzle
8:15 PM 37.4 °F 27.8 °F 33.1 °F 84% 29.91 in 7.0 mi ENE 17.3 mph - N/A Rain Light Rain
8:35 PM 36.9 °F 26.8 °F 33.8 °F 89% 29.89 in 7.0 mi ENE 18.4 mph 25.3 mph 0.01 in Rain Light Rain
8:55 PM 36.3 °F 28.0 °F 34.5 °F 93% 29.90 in 5.0 mi ENE 12.7 mph - 0.02 in Rain Light Rain
9:15 PM 36.5 °F 28.2 °F 34.9 °F 94% 29.89 in 7.0 mi ENE 12.7 mph - N/A Rain Light Rain
10:15 PM 36.0 °F 24.7 °F 35.6 °F 99% 29.80 in 4.0 mi ENE 21.9 mph 27.6 mph 0.02 in Rain Light Rain
10:35 PM 36.0 °F 25.0 °F 35.6 °F 99% 29.78 in 5.0 mi ENE 20.7 mph 27.6 mph 0.02 in Rain Light Rain
10:55 PM 36.1 °F 24.4 °F 35.6 °F 98% 29.75 in 7.0 mi ENE 24.2 mph 29.9 mph 0.02 in Rain Light Rain
11:15 PM 36.5 °F 25.2 °F 35.6 °F 97% 29.74 in 7.0 mi ENE 23.0 mph 31.1 mph N/A   Overcast
11:35 PM 36.5 °F 24.9 °F 35.8 °F 97% 29.71 in 5.0 mi ENE 24.2 mph 29.9 mph 0.01 in Rain Light Rain
11:55 PM 36.5 °F 25.7 °F 36.0 °F 98% 29.68 in 4.0 mi ENE 20.7 mph 31.1 mph 0.02 in Rain Light Rain